Vertical_Velocity
-2 -1 -0 1 0 1 0 1 -0 1 2 12 7 2 1 3 4 2 1 4 -2 -4 -5 -6 -4 -1 -1 -0 -4 -6 -4 -3 -2 -7 -5 -3 -4 -1 2 -0 -2 -5 -6 0
-1 0 -1 -1 -1 -2 -1 1 2 -2 1 -2 -1 0 1 2 4 2 0 -3 -3 -3 -0 -3 -2 1 1 -3 -1 -1 -4 -5 -5 -4 0 0 0 -0 2 4 4 -9 1 -0
-1 -0 -0 -2 -4 -1 -1 -2 1 -0 -0 1 -2 0 2 2 -0 1 1 -2 -3 0 -1 -1 -1 -3 -6 -3 -3 -2 -1 1 -1 -4 -5 -4 -0 -0 4 -2 -4 6 3 -2
-1 0 -5 -1 -1 -0 -5 -4 -2 -1 -4 1 3 4 4 3 1 1 -1 -2 -1 0 -2 -5 -6 -4 -0 -2 2 4 1 0 -7 -7 -3 -3 0 -4 13 -1 0 -4 -1 -2
-1 -1 -1 2 -5 -3 -3 -3 0 1 2 0 3 0 -1 -3 -4 -6 -3 -2 -2 -8 -8 -4 -0 -0 -1 -2 -3 -6 -2 -3 -3 -3 -8 -3 -3 -3 -1 -0 -3 0 0 0
-2 -2 -4 -5 -4 1 3 -18 -3 -3 -1 3 2 -0 4 2 -2 -1 -3 -5 -2 -1 -2 -2 -1 -1 -4 -3 -4 -3 -4 -3 -5 -0 -4 -3 -1 0 0 -2 -0 2 2 0
1 -2 -7 5 -2 -0 2 -5 -1 -3 -2 -1 -2 1 1 0 2 -1 -3 -2 -3 -4 -2 -1 -1 -4 -4 -1 -0 -1 -1 -4 -6 -3 -1 -0 -1 -0 2 -0 7 1 2 -1
2 -1 -14 -3 2 -9 5 -4 -3 -0 -0 0 1 0 -1 -1 -3 -3 1 -2 -3 -2 -1 -4 -3 -4 -1 2 3 -1 -1 -6 -4 -3 1 -0 0 -1 2 1 1 3 1 -1
-4 -4 3 1 -5 -5 -7 -2 -3 -3 2 1 -1 -1 -1 -4 -1 1 -3 -3 -3 -0 2 2 2 -1 -2 0 0 1 2 -4 -4 -1 1 -2 -0 0 0 2 2 2 2 -0
8 -4 -2 -2 -1 -2 -1 1 -0 4 1 -5 2 -2 -2 2 1 1 -2 -2 0 0 2 3 2 3 0 -1 -4 -3 0 -0 -2 -1 0 -1 -1 1 2 1 2 0 0 -1
-1 0 2 1 5 3 1 2 3 2 2 1 -3 -2 3 3 -0 -2 1 0 -0 -2 0 1 -2 -1 -0 0 2 2 1 2 -1 -0 -2 1 0 0 1 1 2 1 1 -0
-6 12 -0 2 8 4 0 2 4 -0 -7 -1 -1 2 -0 -0 1 1 1 -0 1 -0 -3 -0 -1 -3 -2 -2 -0 -1 3 3 1 1 -1 1 0 -1 -1 -3 -1 -2 -1 1
-6 -0 -2 -2 -3 -2 -0 1 -1 4 1 -2 2 2 3 0 1 -1 0 -2 -3 -3 -1 -2 -3 -1 -3 -2 -1 1 -2 3 4 1 0 -1 -1 0 3 1 -4 -1 -0 1
-1 1 -1 -0 1 0 -1 -3 5 4 1 1 3 3 -1 0 2 0 -4 -5 -3 -1 0 -1 -3 -1 -4 -3 -1 -1 0 2 2 2 1 0 2 0 -1 -1 2 2 2 -1
-1 -2 3 1 -2 2 -5 8 -5 3 6 1 -1 -3 -2 -1 -2 -1 -3 -3 0 -1 -1 -1 -2 -1 -2 -1 -1 -1 -0 1 1 -0 -0 1 0 0 -1 -1 -1 -2 0 -1
0 -2 -1 1 2 7 9 0 5 7 -1 0 1 -2 -2 -2 -1 -0 -2 -5 -8 -3 1 -1 2 -2 -1 -2 -1 -1 -2 -1 -1 -1 0 1 1 -0 0 -1 -0 0 0 -1
4 2 -2 6 25 15 3 -1 8 1 -1 -0 -2 -1 -1 -2 -1 -3 2 -0 -2 -1 -2 -6 -3 -1 -1 -2 0 0 -1 -1 -1 0 1 -0 -1 0 1 0 1 -0 1 -1
-1 -1 0 8 -9 -5 -0 14 -2 -2 -1 -1 -0 -0 -1 -3 -6 -0 -1 -1 0 2 -1 -0 -4 -2 -1 -2 0 1 1 -1 -1 -2 -0 -1 0 1 -0 0 0 0 -2 -1
6 18 10 -4 11 17 -0 -1 -1 -0 -2 -3 -1 -0 -2 -4 -3 -1 -4 -3 -2 -7 6 2 0 -1 -0 0 -0 -0 0 -0 -1 -1 -1 0 0 -0 -0 0 1 0 -1 -1
-2 -5 16 5 3 3 1 -3 -1 -0 -3 -1 -2 -1 -1 -1 -3 -4 -3 1 -7 -9 -2 -1 -2 -1 0 1 -0 0 -1 -0 -1 -0 1 -0 0 -0 -1 -0 1 1 -1 -1
11 -1 -1 4 -4 -5 -2 -1 -1 -1 -1 -4 -4 -3 1 3 -1 -3 -4 -6 4 -3 -2 -0 -2 -2 -1 -1 -0 0 -1 -1 -1 -0 1 0 0 -0 -0 -0 1 0 -0 -0
-7 -4 -1 -1 -0 1 -1 -2 -4 -2 -0 -0 -3 -2 -2 1 -0 6 7 -9 2 -2 -2 -1 -0 1 -0 -0 -1 0 1 -1 -1 -1 -0 -0 -0 0 0 -1 1 0 -1 -0
-2 2 2 -1 -1 -0 -0 -3 -3 -4 1 -1 -0 -0 -2 -2 -1 -11 -13 12 -0 -3 -5 0 -0 -1 0 -0 -2 -1 1 1 1 1 1 0 0 0 0 0 0 1 0 -0
2 -1 -1 -4 -2 -1 1 4 -2 0 -1 3 1 1 -6 -4 5 2 -2 -4 -3 -5 -3 -3 -1 -1 1 0 -1 -1 -1 -1 -2 -1 0 1 0 0 2 0 1 1 1 1
-3 -3 -1 -1 0 0 -2 -0 4 5 3 4 2 1 -1 -3 -10 2 -2 -2 -3 -2 -1 0 -1 0 1 0 -0 -0 -1 -1 1 3 3 1 3 3 3 1 -1 -0 -1 -0
-1 1 1 0 -1 -2 -4 -2 -4 -1 -3 0 5 -1 -2 -4 -5 -6 -3 -2 -1 -0 -0 0 0 0 -1 -1 -1 -1 0 1 1 2 3 1 4 2 0 3 2 -0 -0 0
1 -2 -1 2 6 -2 -1 0 -4 1 1 -2 -3 4 2 2 1 -1 -3 -1 1 1 2 1 1 0 -0 -1 -0 0 -1 -1 1 -0 -1 1 4 5 4 2 2 2 -1 1
Height
3143 3144 3145 3145 3145 3145 3145 3145 3144 3145 3144 3144 3142 3141 3139 3138 3137 3136 3134 3131 3128 3122 3116 3110 3106 3100 3093 3088 3082 3075 3069 3062 3054 3046 3039 3032 3025 3020 3015 3011 3006 3001 2997 2993
3142 3142 3142 3142 3141 3140 3141 3141 3140 3138 3137 3136 3136 3136 3135 3134 3132 3130 3127 3123 3117 3111 3106 3101 3096 3090 3085 3079 3073 3067 3061 3053 3045 3037 3029 3022 3016 3010 3006 3003 3000 2994 2991 2986
3139 3139 3139 3139 3137 3136 3136 3136 3137 3135 3133 3132 3132 3131 3131 3129 3127 3124 3120 3115 3109 3105 3100 3095 3089 3083 3077 3072 3066 3059 3051 3043 3036 3029 3022 3015 3009 3003 3000 2996 2992 2989 2985 2981
3137 3137 3139 3133 3133 3133 3133 3132 3132 3131 3130 3129 3129 3128 3126 3123 3120 3117 3112 3107 3104 3098 3092 3086 3080 3075 3069 3063 3057 3051 3043 3036 3028 3021 3014 3007 3001 2996 2993 2990 2987 2984 2979 2973
3134 3133 3131 3131 3129 3130 3129 3130 3127 3126 3126 3125 3123 3121 3118 3115 3112 3110 3105 3100 3095 3088 3083 3078 3072 3066 3061 3055 3050 3043 3035 3026 3019 3013 3007 3001 2994 2990 2988 2984 2981 2977 2973 2968
3131 3131 3128 3124 3125 3125 3125 3124 3123 3124 3122 3120 3119 3115 3113 3108 3104 3100 3095 3089 3085 3081 3076 3071 3066 3060 3053 3045 3039 3032 3026 3018 3012 3005 2999 2994 2989 2985 2981 2978 2975 2971 2967 2962
3126 3126 3122 3119 3120 3121 3123 3122 3118 3117 3115 3113 3111 3110 3106 3101 3097 3092 3088 3084 3080 3075 3070 3065 3058 3051 3044 3037 3030 3024 3017 3010 3003 2997 2992 2987 2983 2979 2976 2973 2970 2966 2961 2955
3122 3122 3118 3115 3116 3118 3117 3113 3111 3110 3107 3105 3103 3099 3096 3092 3088 3084 3083 3078 3073 3068 3063 3057 3049 3042 3036 3029 3022 3016 3009 3002 2996 2991 2985 2981 2977 2974 2971 2968 2964 2960 2955 2951
3117 3114 3111 3110 3110 3109 3108 3107 3104 3102 3099 3096 3093 3090 3087 3083 3081 3079 3075 3070 3066 3061 3055 3049 3042 3034 3026 3020 3013 3008 3001 2994 2989 2984 2980 2975 2972 2969 2966 2963 2959 2955 2950 2946
3109 3107 3106 3105 3103 3101 3100 3098 3096 3094 3091 3087 3085 3081 3078 3076 3074 3071 3067 3063 3058 3052 3046 3040 3033 3026 3018 3012 3005 2999 2994 2988 2983 2978 2974 2970 2968 2965 2961 2958 2954 2950 2945 2941
3100 3100 3099 3098 3097 3095 3092 3090 3088 3085 3083 3080 3076 3074 3072 3071 3067 3064 3060 3055 3049 3043 3037 3030 3024 3018 3010 3003 2997 2991 2986 2981 2976 2972 2969 2966 2963 2960 2957 2953 2949 2944 2940 2936
3093 3096 3092 3090 3089 3087 3085 3082 3079 3077 3072 3070 3069 3068 3066 3063 3060 3057 3052 3046 3041 3035 3028 3021 3015 3009 3002 2994 2988 2982 2978 2974 2970 2967 2963 2961 2958 2955 2951 2947 2943 2939 2936 2932
3086 3086 3083 3081 3080 3078 3076 3073 3070 3068 3065 3063 3063 3062 3060 3057 3053 3049 3044 3037 3032 3026 3019 3012 3006 3000 2993 2986 2980 2975 2970 2967 2965 2961 2958 2956 2953 2950 2947 2942 2938 2935 2932 2928
3078 3076 3073 3072 3071 3069 3067 3064 3063 3060 3058 3058 3057 3055 3053 3050 3045 3040 3035 3029 3022 3016 3010 3004 2998 2993 2986 2979 2973 2968 2964 2961 2959 2956 2954 2951 2948 2944 2941 2938 2935 2932 2929 2925
3069 3067 3066 3064 3062 3060 3058 3055 3055 3054 3053 3052 3051 3049 3046 3041 3036 3032 3026 3019 3013 3007 3002 2997 2991 2986 2979 2973 2968 2963 2959 2956 2954 2951 2949 2946 2943 2940 2936 2933 2930 2927 2925 2921
3060 3057 3055 3054 3054 3051 3049 3049 3049 3048 3047 3046 3044 3040 3036 3032 3027 3022 3015 3009 3004 2999 2995 2989 2985 2979 2973 2967 2963 2959 2955 2952 2949 2947 2944 2941 2938 2935 2932 2929 2926 2924 2921 2918
3051 3050 3047 3045 3043 3042 3044 3044 3043 3043 3042 3039 3036 3031 3027 3023 3018 3013 3007 3002 2996 2991 2986 2982 2978 2973 2967 2962 2958 2954 2951 2948 2945 2943 2939 2936 2932 2930 2928 2925 2923 2921 2918 2914
3042 3041 3039 3040 3038 3037 3037 3038 3039 3038 3035 3031 3027 3023 3019 3014 3009 3005 3000 2995 2990 2984 2978 2973 2969 2965 2961 2956 2952 2949 2946 2943 2941 2938 2935 2931 2928 2926 2923 2921 2919 2917 2915 2911
3034 3034 3034 3033 3033 3034 3035 3035 3033 3030 3026 3022 3019 3015 3011 3006 3001 2997 2992 2988 2983 2977 2973 2967 2963 2959 2955 2950 2946 2943 2940 2938 2935 2933 2930 2927 2924 2921 2919 2917 2916 2914 2911 2908
3029 3030 3030 3030 3030 3031 3030 3028 3025 3022 3018 3015 3011 3007 3003 2998 2993 2989 2985 2980 2975 2970 2965 2961 2957 2953 2949 2945 2940 2937 2934 2933 2931 2928 2925 2922 2919 2917 2915 2913 2912 2910 2907 2905
3028 3027 3027 3029 3028 3026 3023 3020 3017 3014 3011 3007 3003 2999 2995 2991 2986 2982 2978 2974 2969 2963 2959 2955 2950 2946 2942 2938 2934 2931 2929 2927 2926 2923 2921 2918 2915 2913 2911 2909 2907 2905 2903 2901
3026 3026 3025 3023 3021 3019 3015 3012 3008 3006 3003 2999 2995 2991 2987 2984 2980 2976 2972 2967 2962 2957 2953 2948 2944 2940 2936 2932 2929 2926 2924 2922 2920 2918 2916 2913 2911 2908 2906 2904 2902 2900 2898 2896
3022 3020 3018 3016 3014 3011 3008 3005 3001 2998 2994 2990 2987 2983 2979 2976 2972 2967 2963 2960 2954 2950 2945 2941 2937 2933 2929 2925 2922 2920 2918 2916 2914 2912 2909 2907 2905 2902 2900 2898 2896 2894 2893 2891
3016 3014 3011 3009 3006 3003 3000 2997 2993 2990 2986 2982 2979 2975 2971 2967 2964 2960 2955 2950 2946 2942 2937 2933 2929 2925 2922 2918 2915 2913 2910 2908 2906 2904 2902 2900 2898 2895 2893 2891 2889 2887 2886 2884
3009 3007 3004 3002 2999 2995 2992 2989 2985 2982 2979 2975 2971 2967 2963 2959 2955 2952 2947 2943 2938 2934 2929 2926 2922 2918 2914 2911 2908 2905 2902 2900 2898 2895 2893 2891 2889 2887 2885 2883 2881 2879 2878 2876
3003 3000 2998 2994 2991 2987 2983 2980 2976 2973 2969 2966 2962 2958 2954 2950 2946 2942 2938 2934 2930 2925 2921 2918 2914 2911 2907 2904 2901 2897 2894 2891 2888 2886 2884 2882 2880 2878 2876 2874 2872 2871 2870 2868
2995 2992 2989 2986 2983 2979 2976 2972 2967 2964 2960 2956 2952 2949 2945 2941 2937 2933 2928 2925 2921 2917 2913 2910 2907 2903 2900 2896 2892 2888 2884 2881 2878 2875 2873 2871 2869 2867 2866 2864 2863 2861 2860 2859